Home   Weather   Perpignan   Past weeks

Flag for France Past Weather in Perpignan, Languedoc-Roussillon, France — Yesterday and Last 2 Weeks

Now
64 °F

Sunny.


Feels Like: 64 °F
Forecast: 63 / 78 °F
Wind: 3 mph from North

Location: Perpignan Airport

Current Time: Sep 26, 2016 at 9:11:36 AM

Latest Report: Sep 26, 2016 at 8:30 AM


Visibility: 10 mi

Pressure: 30.15 "Hg

Humidity: 68%

Dew Point: 54 °F

Location of PerpignanLocation

Past Weather in Perpignan — Graph

°F

Perpignan Temperature Yesterday

Maximum temperature yesterday: 79 °F (at 1:30 PM)
Minimum temperature yesterday: 63 °F (at 6:00 AM)
Average temperature yesterday: 68 °F

High & Low Weather Summary for the Past Weeks

 TemperatureHumidityPressure
High90 °F (Sep 11, 2:00 PM)94% (Sep 14, 11:00 AM)30.27 "Hg (Sep 14, 11:00 AM)
Low57 °F (Sep 15, 5:00 AM)26% (Sep 15, 4:00 PM)29.77 "Hg (Sep 13, 5:30 PM)
Average70 °F58%30.02 "Hg
* Reported Sep 11 8:00 AM — Sep 26 8:00 AM, Perpignan, Weather by CustomWeather, © 2016

Note: Actual official high and low records may vary slightly from our data, if they occured in-between our weather recording intervals... More about our weather records

Advertising

Perpignan Weather History for the Previous 24 Hours

Scroll right to see more
 ConditionsComfort  
Time TempWeatherWind HumidityBarometerVisibility
8:00 AM
Mon, Sep 26
64 °FPassing clouds.8 mph68%30.15 "HgN/A
7:30 AM63 °FPassing clouds.7 mph73%30.15 "HgN/A
7:00 AM63 °FPassing clouds.6 mph73%30.12 "HgN/A
6:30 AM63 °FPassing clouds.7 mph73%30.12 "HgN/A
6:00 AM64 °FClear.9 mph68%30.12 "Hg10 mi
5:30 AM64 °FClear.12 mph68%30.12 "Hg10 mi
5:00 AM64 °FClear.12 mph68%30.12 "Hg10 mi
4:30 AM64 °FPassing clouds.9 mph73%30.15 "HgN/A
4:00 AM64 °FClear.7 mph68%30.12 "Hg10 mi
3:30 AM64 °FPassing clouds.10 mph73%30.12 "HgN/A
3:00 AM64 °FClear.14 mph73%30.12 "Hg10 mi
2:30 AM64 °FClear.12 mph73%30.15 "Hg10 mi
2:00 AM64 °FPassing clouds.6 mph68%30.15 "HgN/A
1:30 AM64 °FClear.14 mph73%30.15 "Hg10 mi
1:00 AM66 °FClear.14 mph68%30.15 "Hg10 mi
12:30 AM66 °FClear.16 mph64%30.15 "Hg10 mi
12:00 AM66 °FPassing clouds.18 mph64%30.18 "HgN/A
11:30 PM
Sun, Sep 25
64 °FPassing clouds.9 mph73%30.18 "HgN/A
11:00 PM64 °FClear.13 mph78%30.18 "Hg10 mi
10:30 PM64 °FMostly cloudy.12 mph78%30.18 "HgN/A
10:00 PM66 °FMostly cloudy.13 mph73%30.18 "HgN/A
9:30 PM64 °FMostly cloudy.12 mph83%30.18 "HgN/A
9:00 PM64 °FMostly cloudy.12 mph88%30.18 "HgN/A
8:30 PM66 °FPassing clouds.9 mph83%30.18 "HgN/A
8:00 PM66 °FMostly cloudy.6 mph88%30.18 "HgN/A
7:30 PM66 °FMore clouds than sun.6 mph88%30.18 "HgN/A
7:00 PM66 °FPartly sunny.3 mph88%30.18 "HgN/A
6:30 PM66 °FLight rain. Broken clouds.2 mph88%30.18 "HgN/A
6:00 PM66 °FLight rain. Mostly cloudy.1 mph83%30.18 "HgN/A
5:30 PM66 °FThundershowers. Cloudy.6 mph88%30.15 "HgN/A
5:00 PM66 °FThundershowers. Broken clouds.3 mph88%30.15 "HgN/A
4:30 PM66 °FThundershowers. Partly sunny.5 mph83%30.15 "HgN/A
4:00 PM66 °FStrong thunderstorms. Partly sunny.12 mph83%30.12 "HgN/A
3:30 PM72 °FThunderstorms. Partly sunny.10 mph73%30.12 "HgN/A
3:00 PM72 °FThundershowers. Partly sunny.9 mph73%30.12 "HgN/A
2:30 PM75 °FPartly sunny.10 mph65%30.12 "HgN/A
2:00 PM77 °FBroken clouds.12 mph57%30.12 "HgN/A
1:30 PM79 °FPassing clouds.7 mph48%30.12 "HgN/A
1:00 PM77 °FPassing clouds.6 mph51%30.12 "HgN/A
12:30 PM77 °FPassing clouds.7 mph51%30.12 "HgN/A
12:00 PM77 °FSunny.3 mph51%30.12 "Hg10 mi
11:30 AM75 °FSunny.2 mph54%30.12 "Hg10 mi
11:00 AM73 °FSunny.3 mph57%30.15 "Hg10 mi
10:30 AM73 °FMild.1 mph61%30.15 "HgN/A
10:00 AM70 °FMild.3 mph69%30.15 "HgN/A
9:30 AM66 °FBroken clouds.8 mph88%30.15 "HgN/A
9:00 AM66 °FSunny.3 mph94%30.12 "Hg10 mi
Weather by CustomWeather, © 2016

See weather overviewHow to use our weather pages